Погода в Пензе

Погода в Пензе : погода сейчас, прогноз погоды и архив. Всё, что Вы хотите узнать о погоде в Пензе!

Хотите узнать прогноз погоды в Пензе? Тогда Вам сюда: Погода в Пензе

Поиск расширенной информации на нашем сайте:

Другие новости

Новости СМИ2

Главная страница сайта

Новости сайта

02.10.2013

Напоминаем, что на нашем новом сайте вы можете получить высокодетализированные прогнозы погоды по пунктам России, СНГ и мира (включающие важные для авиации метеовеличины, такие как направление и скорость ветра, видимость, явления погоды, количество и форма облачности, нижняя и верхняя граница облачности), а также ознакомиться с разнообразными материалами по авиационной метеорологии и подборкой полезных ссылок на эту тему.

Сайт Метеоцентр.Азия посвящён разработке технологий оптимизации авиаметеорологического обслуживания, включая проектирование и перспективное создание нескольких автоматизированных авиаметеорологических систем:
- система выпуска высокодетальных прогностических карт явлений погоды для нижнего воздушного пространства по России и ближнему зарубежью;
- система верификации прогнозов TAF (выпускаемых синоптиками официальных АМСГ РФ и ближнего зарубежья) и AUTOTAF (выпускаемых сайтом Метеоцентр.Азия) - выявление ошибок, онлайн-сопоставление с фактической погодой METAR, автоматическое внесение коррективов в прогнозы при резком отклонении фактической погоды от прогноза, подсчёт оправдываемости прогнозов по элементам и в целом;
- система обработки, анализа и отображения авиаметеорологической информации для применения провайдерами метеорологической информации.

Рекомендуем: Нижегородская типография ОЛИВЕР: печать листовок.

Погода в Пензе - сегодня

Время (UTC), дата Ветер
(°,м/с) 
Видим.   Явления Облачность Т
(°С)
Тd
(°С)
f(%) Тe
(°С)
Pmin
(гПа)
dP
(гПа)
Po
(мм)
O2
(г/м3)
Тmin Tmax R s Состояние
почвы
06 24.05.17 250 (З) 10 км    ясно 
+18.5 +3.7 37 +19  1015.6  0.1  747  281           
09 24.05.17 250 (З) 10 км    4/4 1000 м 
[Cu hum]
+22.1 +4.3 31 +22  1014.8  -0.6  746  277           
12 24.05.17 270 (З) 10 км    8/8 1140 м кучево-дожд. 
[Cb cap]
+22.7 +5.6 33 +23  1014.1  -0.6  746  277           
15 24.05.17 290 (З) 10 км    4/4 1000 м 
[Cu hum]
+23.3 +5 30 +23  1013.6  -0.5  745  276    +24       
18 24.05.17 230 (ЮЗ) 10 км    3/3 600 м верхняя 
[Cu hum|Ci fib]
+17 +7.5 54 +18  1015.1  1.1  746  282           
21 24.05.17 280 (З) 10 км    ясно 
+12.5 +8.1 75 +14  1016.1  0.7  747  286           
00 25.05.17 тихо ()   10 км    ясно 
+10.6 +7.9 83 +11  1016.2  0.1  747  288           
03 25.05.17 190 (Ю) 10 км    ясно 
+14.8 +10.3 74 +18  1016.3  0.4  747  284  +9.6        сухая 
06 25.05.17 250 (З) 10 км    ясно 
+21.1 +11.5 54 +24  1016.1  0.2  747  277           
09 25.05.17 250 (З) 10 км    6/6 600 м кучево-дожд. 
[Cb cap]
+25.4 +8.3 34 +25  1015.2  -0.5  747  274           
12 25.05.17 220 (ЮЗ) 10 км  гроза без осадков{ливн. осадки}  8/8 1000 м кучево-дожд. 
[Cb calv]
+22.4 +10 45 +24  1014.5  -0.8  746  276           
15 25.05.17 260 (З) 6-11{11}  10 км  гроза, ливневой дождь  10/8 870 м кучево-дожд., средняя 
[Cb calv|Ac cuf]
+16.7 +11.7 72 +20  1014.8  0.1  746  281    +25.9     
18 25.05.17 тихо () {12}  10 км  {гроза, ливн. осадки}  10/0 средняя 
[Ac As]
+14.7 +12.3 86 +19  1016.1  1.1  747  283           
21 25.05.17 240 (ЮЗ) 10 км    10/0 средняя 
[Ac As]
+13 +11.6 91 +17  1015.6  -0.5  746  285           
00 26.05.17 тихо ()   10 км    8/0 средняя 
[Ac As]
+12 +10.7 92 +14  1015.2  -0.5  746  286           
03 26.05.17 090 (В) 10 км    8/0 средняя 
[Ac As]
+13.3 +12.4 94 +20  1015  0.1  746  284  +11.7    0.0    влажная 
06 26.05.17 280 (З) 10 км    10/4 600 м кучево-дожд., средняя 
[Cb cap|Ac As]
+17.6 +12.8 73 +23  1014.8  0.1  746  280           
09 26.05.17 320 (СЗ) 4000 м  слаб. дождь  10/4 600 м средняя 
[Sc diur, vesp|Ac As]
+18.5 +13.5 73 +25  1014.2  -0.5  746  279           
12 26.05.17 220 (ЮЗ) 10 км  {дождь}  5/3 1000 м верхняя 
[Cu med, cong|Cs]
+23.4 +9 40 +23  1011.6  -2.3  744  275           
18 26.05.17 180 (Ю) 10 км    9/0 средняя 
[Ac As]
+17.2 +10 63 +20  1010.9  -0.6  743  280           
21 26.05.17 320 (СЗ) 10 км    3/0 верхняя 
[Cs]
+13 +10.7 86 +16  1010.5  -0.7  743  284           
00 27.05.17 240 (ЮЗ) 10 км    10/0 средняя 
[Ac As]
+13.1 +11.1 88 +17  1009.6  -0.9  742  283           
03 27.05.17 230 (ЮЗ) 10 км    6/0 средняя, верхняя 
[Ac trans|Cc]
+14.8 +12.1 84 +20  1009.1  -0.3  742  281  +12.2        сухая 
06 27.05.17 280 (З) 10 км    10/3 600 м кучево-дожд., средняя, верхняя 
[Cb cap|Ac cast|Cc]
+19.3 +12 63 +24  1008.3  -0.5  741  277           
09 27.05.17 280 (З) 10 км    10/3 600 м кучево-дожд., средняя, верхняя 
[Cb cap|Ac As|Cc]
+21.1 +11 52 +24  1007.7  -0.5  741  275           
Время (UTC), дата Ветер
(°,м/с) 
Видим.   Явления Облачность Т
(°С)
Тd
(°С)
f(%) Тe
(°С)
Pmin
(гПа)
dP
(гПа)
Po
(мм)
O2
(г/м3)
Тmin Tmax R s Состояние
почвы

Для получения пояснительной информации подведите курсор к названию столбца.

ПОГОДА в Пензе - архив

Всё, что Вы хотите узнать о погоде в Пензе - удобно и подробно!

Выберите нужную дату (начиная с 1 января 2015* года) и нажмите кнопку "Найти".
Будут отображены архивные сводки погоды по пункту Пенза, начиная с указанной даты.


Отображать данные в формате CSV (для использования в таблицах Excel)


Внимание! Наш архив погоды предназначен исключительно для личного некоммерческого использования в познавательных целях. Если Вам необходимы официальные справки о состоянии погоды (для производственных, юридических, коммерческих и т.п. целей), обращайтесь в органы Росгидромета.

*Примечание: данная дата относится к архиву по метеостанциям СССР (Россия, СНГ, Балтия).
Архив по метеостанциям Зарубежной Европы и Азии (кроме Китая) хранится 10 дней, по другим регионам земного шара (Китай, Африка, Америка, Австралия, Океания) - 1 день.

Пенза - район местоположения метеостанции


Название, широта, долгота, высота метеостанции:
Пенза (Терновка) 53.1°ш. 45°д. 177 м над ур. моря [Российская Федерация]

Дополнительная информация

В oтличие oт бoльшинства пoгoдных сайтoв мы публикуем пoдрoбную метеoинфoрмацию в детальнoм прoфессиoнальнoм фoрмате.

Характеристики температуры и влажнoсти вoздуха измеряются на высoте 2 м в тени вдали oт зданий и деревьев.
Скoрoсть ветра измеряется на высoте 10 м (на урoвне рoста челoвека скoрoсть ветра ниже в 1.5-2 раза). Если метеoстанция нахoдится в гoрoде или в лесу, тo скoрoсть ветра занижена на 2-4 м/с пo сравнению с oткрытым местoм. Скoрoсть ветра над акватoриями крупных рек и oзёр, а также на вершинах хoлмoв на 2-5 м/с выше, чем в oбычных услoвиях.
Атмoсфернoе давление в разных тoчках местнoсти мoжет значительнo oтличаться oт давления на метеoстанции, в зависимoсти oт услoвий рельефа (при пoдъёме на 10 м давление пoнижается примернo на 1 мм рт.ст.).